Location: Narrabri
(30.3170°S, 149.7830°E)
Time: 20:27:23
(UTC+10:00)

Vanguard 2 Rocket - All Passes

Search period start: 19 June 2018 00:00
Search period end: 29 June 2018 00:00
Orbit: 553 x 3328 km, 32.9° (Epoch: 18 June)

Date Brightness Start Highest point End Pass type
(mag) Time Alt. Az. Time Alt. Az. Time Alt. Az.
19 Jun - 00:39:52 10° W 00:45:10 79° S 00:54:25 10° E visible
19 Jun - 02:52:13 10° WSW 02:59:45 83° S 03:13:43 10° E visible
19 Jun - 05:05:07 10° WSW 05:15:30 62° NNW 05:33:00 10° NE visible
19 Jun - 07:20:31 10° W 07:32:22 30° NW 07:48:01 10° NNE daylight
19 Jun - 21:30:23 10° NNW 21:33:20 19° NE 21:36:43 10° E night (unlit)
19 Jun - 23:41:05 10° WNW 23:45:39 88° NNE 23:53:02 10° ESE night (unlit)
20 Jun - 01:53:18 10° W 01:59:37 75° S 02:11:08 10° E visible
20 Jun - 04:05:47 10° WSW 04:14:41 74° NNW 04:30:41 10° ENE visible
20 Jun - 06:19:49 10° W 06:31:00 38° NNW 06:47:28 10° NNE visible
20 Jun - 08:41:25 10° WNW 08:48:19 13° NW 08:55:55 10° NNW daylight
20 Jun - 22:42:22 10° WNW 22:46:26 63° NNE 22:52:14 10° ESE night (unlit)
21 Jun - 00:54:27 10° W 00:59:46 72° S 01:09:02 10° E visible
21 Jun - 03:06:44 10° WSW 03:14:15 85° NNW 03:28:11 10° ENE visible
21 Jun - 05:19:52 10° W 05:29:54 47° NNW 05:46:10 10° NE visible
21 Jun - 07:37:12 10° WNW 07:46:48 20° NW 07:58:37 10° N daylight
21 Jun - 21:43:47 10° NW 21:47:27 37° NNE 21:51:51 10° E night (unlit)
21 Jun - 23:55:37 10° W 00:00:12 74° S 00:07:34 10° ESE night (unlit)
22 Jun - 02:07:50 10° WSW 02:14:10 83° SSE 02:25:46 10° E visible
22 Jun - 04:20:23 10° W 04:29:07 57° NNW 04:44:23 10° NE visible
22 Jun - 06:35:31 10° W 06:45:28 26° NNW 06:59:08 10° NNE daylight
22 Jun - 20:45:28 10° NNW 20:48:29 20° NNE 20:51:35 10° E night (unlit)
22 Jun - 22:56:45 10° WNW 23:00:52 88° SSW 23:06:45 10° ESE night (unlit)
23 Jun - 01:09:01 10° WSW 01:14:22 73° S 01:23:43 10° E visible
23 Jun - 03:21:15 10° WSW 03:28:43 68° NNW 03:42:19 10° ENE visible
23 Jun - 05:35:01 10° W 05:44:23 33° NNW 05:58:37 10° NNE visible
23 Jun - 07:58:18 10° NW 08:01:29 11° NW 08:04:51 10° NNW daylight
23 Jun - 19:48:04 10° N 19:49:23 11° NNE 19:50:39 10° NE visible
23 Jun - 21:57:50 10° WNW 22:01:45 65° NNE 22:06:30 10° ESE night (unlit)
24 Jun - 00:10:12 10° W 00:14:49 68° S 00:22:10 10° E night (unlit)
24 Jun - 02:22:20 10° WSW 02:28:39 82° NNW 02:40:12 10° ENE visible
24 Jun - 04:35:13 10° W 04:43:36 41° NNW 04:57:28 10° NE visible
24 Jun - 06:52:45 10° WNW 07:00:05 16° NNW 07:09:07 10° N daylight
24 Jun - 20:58:57 10° NW 21:02:44 39° NNE 21:06:38 10° E night (unlit)
24 Jun - 23:11:18 10° W 23:15:25 69° S 23:21:17 10° ESE night (unlit)
25 Jun - 01:23:33 10° WSW 01:28:55 84° SSE 01:38:19 10° ENE visible
25 Jun - 03:35:55 10° W 03:43:11 50° NNW 03:55:56 10° NE visible
25 Jun - 05:51:00 10° WNW 05:58:59 22° NNW 06:09:57 10° NNE visible
25 Jun - 20:00:07 10° NNW 20:03:42 23° NNE 20:06:55 10° E visible
25 Jun - 22:12:15 10° W 22:16:12 83° SSW 22:21:01 10° ESE night (unlit)
26 Jun - 00:24:46 10° WSW 00:29:23 71° S 00:36:49 10° E night (unlit)
26 Jun - 02:36:53 10° W 02:43:07 62° NNW 02:54:17 10° ENE visible
26 Jun - 04:50:34 10° W 04:58:11 28° NNW 05:09:42 10° NNE visible
26 Jun - 19:01:33 10° N 19:04:28 15° NNE 19:06:59 10° ENE visible
26 Jun - 21:13:03 10° WNW 21:17:07 70° NNE 21:21:17 10° ESE night (unlit)
26 Jun - 23:25:54 10° W 23:30:01 64° S 23:35:53 10° E night (unlit)
27 Jun - 01:38:03 10° WSW 01:43:24 77° NNW 01:52:43 10° ENE visible
27 Jun - 03:50:52 10° W 03:57:44 34° NNW 04:08:54 10° NNE visible
27 Jun - 06:09:32 10° NW 06:13:46 12° NNW 06:18:40 10° N visible
27 Jun - 18:04:18 10° NNE 18:05:00 10° NNE 18:05:40 10° NNE visible
27 Jun - 20:13:43 10° NW 20:18:04 44° NNE 20:21:51 10° E visible
27 Jun - 22:26:50 10° W 22:30:45 64° S 22:35:32 10° ESE night (unlit)
28 Jun - 00:39:16 10° WSW 00:43:55 86° SSE 00:51:24 10° ENE night (unlit)
28 Jun - 02:51:36 10° W 02:57:39 42° NNW 03:07:50 10° NE visible
28 Jun - 05:07:06 10° WNW 05:12:55 17° NNW 05:20:33 10° N visible
28 Jun - 19:14:16 10° NW 19:18:56 29° NNE 19:22:33 10° E visible
28 Jun - 21:27:30 10° W 21:31:36 78° S 21:35:47 10° ESE night (unlit)
28 Jun - 23:40:27 10° WSW 23:44:35 70° S 23:50:31 10° E night (unlit)
